Time,TemperatureF,DewpointF,PressureIn,WindDirection,WindDirectionDegrees,WindSpeedMPH,WindSpeedGustMPH,Humidity,HourlyPrecipIn,Conditions,Clouds,dailyrainin,SoftwareType,DateUTC
2013-01-13 00:03:00,60.0,58.0,-100.00,South,180,11.0,26.0,94,-99.99,,,-99.99,,2013-01-13 05:03:00,
2013-01-13 00:12:00,60.0,58.0,-100.00,SSW,200,12.0,24.0,93,-99.99,,,-99.99,,2013-01-13 05:12:00,
2013-01-13 00:22:00,60.0,58.0,-100.00,South,170,9.0,23.0,93,-99.99,,,-99.99,,2013-01-13 05:22:00,
2013-01-13 00:32:00,60.0,58.0,-100.00,South,190,10.0,23.0,92,-99.99,,,-99.99,,2013-01-13 05:32:00,
2013-01-13 00:42:00,60.0,58.0,-100.00,South,180,7.0,20.0,92,-99.99,,,-99.99,,2013-01-13 05:42:00,
2013-01-13 00:52:00,60.0,58.0,-100.00,South,180,10.0,19.0,91,-99.99,,,-99.99,,2013-01-13 05:52:00,
2013-01-13 01:03:00,60.0,57.0,-100.00,SSW,195,10.0,24.0,90,-99.99,,,-99.99,,2013-01-13 06:03:00,
2013-01-13 01:12:00,60.0,58.0,-100.00,South,180,12.0,22.0,93,-99.99,,,-99.99,,2013-01-13 06:12:00,
2013-01-13 01:22:00,59.0,58.0,-100.00,South,180,10.0,22.0,95,-99.99,,,-99.99,,2013-01-13 06:22:00,
2013-01-13 01:32:00,59.0,58.0,-100.00,South,180,14.0,24.0,97,-99.99,,,-99.99,,2013-01-13 06:32:00,
2013-01-13 01:42:00,59.0,58.0,-100.00,South,175,15.0,25.0,97,-99.99,,,-99.99,,2013-01-13 06:42:00,
2013-01-13 01:52:00,59.0,58.0,-100.00,South,170,16.0,25.0,96,-99.99,,,-99.99,,2013-01-13 06:52:00,
2013-01-13 02:02:00,59.0,58.0,-100.00,South,170,17.0,30.0,95,-99.99,,,-99.99,,2013-01-13 07:02:00,
2013-01-13 02:12:00,59.0,57.0,-100.00,South,180,17.0,29.0,93,-99.99,,,-99.99,,2013-01-13 07:12:00,
2013-01-13 02:22:00,60.0,57.0,-100.00,South,175,17.0,29.0,92,-99.99,,,-99.99,,2013-01-13 07:22:00,
2013-01-13 02:32:00,60.0,57.0,-100.00,South,175,14.0,26.0,91,-99.99,,,-99.99,,2013-01-13 07:32:00,
2013-01-13 02:42:00,59.0,57.0,-100.00,South,190,11.0,24.0,94,-99.99,,,-99.99,,2013-01-13 07:42:00,
2013-01-13 02:52:00,58.0,57.0,-100.00,WSW,245,14.0,21.0,96,-99.99,,,-99.99,,2013-01-13 07:52:00,
2013-01-13 03:02:00,56.0,55.0,-100.00,NW,320,24.0,39.0,99,-99.99,,,-99.99,,2013-01-13 08:02:00,
2013-01-13 03:12:00,54.0,54.0,-100.00,WNW,300,17.0,39.0,99,-99.99,,,-99.99,,2013-01-13 08:12:00,
2013-01-13 03:22:00,53.0,53.0,-100.00,NW,315,9.0,19.0,99,-99.99,,,-99.99,,2013-01-13 08:22:00,
2013-01-13 03:32:00,53.0,53.0,-100.00,NNW,340,8.0,14.0,99,-99.99,,,-99.99,,2013-01-13 08:32:00,
2013-01-13 03:42:00,53.0,52.0,-100.00,North,350,3.0,12.0,99,-99.99,,,-99.99,,2013-01-13 08:42:00,
2013-01-13 03:52:00,52.0,52.0,-100.00,NW,325,6.0,11.0,99,-99.99,,,-99.99,,2013-01-13 08:52:00,
2013-01-13 04:02:00,52.0,52.0,-100.00,WNW,300,4.0,8.0,99,-99.99,,,-99.99,,2013-01-13 09:02:00,
2013-01-13 04:12:00,52.0,52.0,-100.00,SW,225,4.0,6.0,99,-99.99,,,-99.99,,2013-01-13 09:12:00,
2013-01-13 04:22:00,52.0,51.0,-100.00,SW,235,4.0,6.0,99,-99.99,,,-99.99,,2013-01-13 09:22:00,
2013-01-13 04:32:00,52.0,51.0,-100.00,WSW,240,4.0,7.0,99,-99.99,,,-99.99,,2013-01-13 09:32:00,
2013-01-13 04:42:00,52.0,51.0,-100.00,SW,230,5.0,9.0,99,-99.99,,,-99.99,,2013-01-13 09:42:00,
2013-01-13 04:52:00,52.0,51.0,-100.00,SW,225,7.0,9.0,99,-99.99,,,-99.99,,2013-01-13 09:52:00,
2013-01-13 05:03:00,52.0,51.0,-100.00,SW,235,6.0,9.0,99,-99.99,,,-99.99,,2013-01-13 10:03:00,
2013-01-13 05:12:00,52.0,51.0,-100.00,WSW,240,4.0,8.0,99,-99.99,,,-99.99,,2013-01-13 10:12:00,
2013-01-13 05:22:00,52.0,51.0,-100.00,South,180,1.0,4.0,99,-99.99,,,-99.99,,2013-01-13 10:22:00,
2013-01-13 05:32:00,52.0,51.0,-100.00,South,190,1.0,3.0,99,-99.99,,,-99.99,,2013-01-13 10:32:00,
2013-01-13 05:42:00,51.0,51.0,-100.00,SW,220,2.0,3.0,99,-99.99,,,-99.99,,2013-01-13 10:42:00,
2013-01-13 05:52:00,51.0,51.0,-100.00,WSW,245,4.0,6.0,99,-99.99,,,-99.99,,2013-01-13 10:52:00,
2013-01-13 06:02:00,51.0,51.0,-100.00,WSW,250,4.0,7.0,99,-99.99,,,-99.99,,2013-01-13 11:02:00,
2013-01-13 06:12:00,49.0,48.0,-100.00,WNW,290,16.0,24.0,99,-99.99,,,-99.99,,2013-01-13 11:12:00,
2013-01-13 06:22:00,45.0,45.0,-100.00,West,280,6.0,24.0,99,-99.99,,,-99.99,,2013-01-13 11:22:00,
2013-01-13 06:33:00,44.0,44.0,-100.00,West,275,4.0,9.0,99,-99.99,,,-99.99,,2013-01-13 11:33:00,
2013-01-13 06:42:00,44.0,44.0,-100.00,WSW,255,3.0,6.0,99,-99.99,,,-99.99,,2013-01-13 11:42:00,
2013-01-13 06:52:00,44.0,44.0,-100.00,West,260,2.0,6.0,99,-99.99,,,-99.99,,2013-01-13 11:52:00,
2013-01-13 07:03:00,44.0,44.0,-100.00,WSW,250,4.0,6.0,99,-99.99,,,-99.99,,2013-01-13 12:03:00,
2013-01-13 07:12:00,44.0,44.0,-100.00,West,280,5.0,9.0,99,-99.99,,,-99.99,,2013-01-13 12:12:00,
2013-01-13 07:22:00,42.0,42.0,-100.00,NW,305,12.0,16.0,99,-99.99,,,-99.99,,2013-01-13 12:22:00,
2013-01-13 07:33:00,41.0,41.0,-100.00,NW,315,6.0,12.0,99,-99.99,,,-99.99,,2013-01-13 12:33:00,
2013-01-13 07:42:00,40.0,40.0,-100.00,South,170,1.0,8.0,99,-99.99,,,-99.99,,2013-01-13 12:42:00,
2013-01-13 07:52:00,40.0,40.0,-100.00,ESE,120,3.0,4.0,99,-99.99,,,-99.99,,2013-01-13 12:52:00,
2013-01-13 08:03:00,41.0,41.0,-100.00,SE,130,7.0,10.0,99,-99.99,,,-99.99,,2013-01-13 13:03:00,
2013-01-13 08:12:00,43.0,42.0,-100.00,SE,140,8.0,12.0,99,-99.99,,,-99.99,,2013-01-13 13:12:00,
2013-01-13 08:22:00,44.0,43.0,-100.00,SSE,155,7.0,12.0,99,-99.99,,,-99.99,,2013-01-13 13:22:00,
2013-01-13 08:33:00,46.0,46.0,-100.00,SSE,160,9.0,14.0,99,-99.99,,,-99.99,,2013-01-13 13:33:00,
2013-01-13 08:42:00,48.0,48.0,-100.00,South,180,6.0,14.0,99,-99.99,,,-99.99,,2013-01-13 13:42:00,
2013-01-13 08:53:00,44.0,44.0,-100.00,NW,310,11.0,19.0,99,-99.99,,,-99.99,,2013-01-13 13:53:00,
2013-01-13 09:03:00,44.0,44.0,-100.00,SE,130,3.0,19.0,99,-99.99,,,-99.99,,2013-01-13 14:03:00,
2013-01-13 09:12:00,47.0,46.0,-100.00,ESE,110,10.0,16.0,99,-99.99,,,-99.99,,2013-01-13 14:12:00,
2013-01-13 09:22:00,43.0,42.0,-100.00,WNW,295,11.0,19.0,99,-99.99,,,-99.99,,2013-01-13 14:22:00,
2013-01-13 09:33:00,39.0,38.0,-100.00,NW,320,19.0,34.0,99,-99.99,,,-99.99,,2013-01-13 14:33:00,
2013-01-13 09:43:00,38.0,38.0,-100.00,NNW,335,8.0,23.0,99,-99.99,,,-99.99,,2013-01-13 14:43:00,
2013-01-13 09:52:00,38.0,38.0,-100.00,North,350,6.0,12.0,99,-99.99,,,-99.99,,2013-01-13 14:52:00,
2013-01-13 10:03:00,38.0,38.0,-100.00,North,5,6.0,10.0,99,-99.99,,,-99.99,,2013-01-13 15:03:00,
2013-01-13 10:12:00,38.0,38.0,-100.00,NNW,345,6.0,9.0,99,-99.99,,,-99.99,,2013-01-13 15:12:00,
2013-01-13 10:23:00,38.0,38.0,-100.00,NNW,340,8.0,12.0,99,-99.99,,,-99.99,,2013-01-13 15:23:00,
2013-01-13 10:33:00,38.0,38.0,-100.00,NNW,335,7.0,11.0,99,-99.99,,,-99.99,,2013-01-13 15:33:00,
2013-01-13 10:43:00,38.0,38.0,-100.00,North,350,4.0,8.0,99,-99.99,,,-99.99,,2013-01-13 15:43:00,
2013-01-13 10:52:00,38.0,38.0,-100.00,NW,325,8.0,11.0,99,-99.99,,,-99.99,,2013-01-13 15:52:00,
2013-01-13 11:03:00,38.0,38.0,-100.00,NNW,345,7.0,10.0,99,-99.99,,,-99.99,,2013-01-13 16:03:00,
2013-01-13 11:12:00,38.0,38.0,-100.00,North,350,5.0,10.0,99,-99.99,,,-99.99,,2013-01-13 16:12:00,
2013-01-13 11:23:00,38.0,38.0,-100.00,North,0,2.0,7.0,99,-99.99,,,-99.99,,2013-01-13 16:23:00,
2013-01-13 11:33:00,38.0,38.0,-100.00,North,350,3.0,7.0,99,-99.99,,,-99.99,,2013-01-13 16:33:00,
2013-01-13 11:43:00,38.0,38.0,-100.00,NNW,345,3.0,6.0,99,-99.99,,,-99.99,,2013-01-13 16:43:00,
2013-01-13 11:53:00,38.0,38.0,-100.00,NNW,335,4.0,7.0,99,-99.99,,,-99.99,,2013-01-13 16:53:00,
2013-01-13 12:03:00,38.0,38.0,-100.00,NNW,335,2.0,6.0,99,-99.99,,,-99.99,,2013-01-13 17:03:00,
2013-01-13 12:12:00,38.0,38.0,-100.00,North,350,3.0,5.0,99,-99.99,,,-99.99,,2013-01-13 17:12:00,
2013-01-13 12:22:00,38.0,38.0,-100.00,NW,325,4.0,7.0,99,-99.99,,,-99.99,,2013-01-13 17:22:00,
2013-01-13 12:33:00,38.0,38.0,-100.00,NW,325,4.0,7.0,99,-99.99,,,-99.99,,2013-01-13 17:33:00,
2013-01-13 12:42:00,38.0,38.0,-100.00,NNW,340,6.0,9.0,99,-99.99,,,-99.99,,2013-01-13 17:42:00,
2013-01-13 12:53:00,38.0,38.0,-100.00,NW,325,6.0,9.0,99,-99.99,,,-99.99,,2013-01-13 17:53:00,
2013-01-13 13:03:00,38.0,37.0,-100.00,North,350,5.0,9.0,99,-99.99,,,-99.99,,2013-01-13 18:03:00,
2013-01-13 13:12:00,37.0,37.0,-100.00,NNW,335,7.0,11.0,99,-99.99,,,-99.99,,2013-01-13 18:12:00,
2013-01-13 13:23:00,38.0,37.0,-100.00,NNW,340,5.0,11.0,99,-99.99,,,-99.99,,2013-01-13 18:23:00,
2013-01-13 13:33:00,37.0,37.0,-100.00,North,350,6.0,9.0,99,-99.99,,,-99.99,,2013-01-13 18:33:00,
2013-01-13 13:43:00,37.0,37.0,-100.00,NNE,25,6.0,9.0,99,-99.99,,,-99.99,,2013-01-13 18:43:00,
2013-01-13 13:53:00,37.0,37.0,-100.00,NE,35,5.0,7.0,99,-99.99,,,-99.99,,2013-01-13 18:53:00,
2013-01-13 14:03:00,37.0,37.0,-100.00,NNE,25,4.0,6.0,99,-99.99,,,-99.99,,2013-01-13 19:03:00,
2013-01-13 14:12:00,37.0,37.0,-100.00,NE,40,4.0,7.0,99,-99.99,,,-99.99,,2013-01-13 19:12:00,
2013-01-13 14:22:00,37.0,37.0,-100.00,East,85,6.0,7.0,99,-99.99,,,-99.99,,2013-01-13 19:22:00,
2013-01-13 14:33:00,38.0,37.0,-100.00,East,95,6.0,10.0,99,-99.99,,,-99.99,,2013-01-13 19:33:00,
2013-01-13 14:43:00,38.0,37.0,-100.00,ESE,120,6.0,11.0,99,-99.99,,,-99.99,,2013-01-13 19:43:00,
2013-01-13 14:52:00,38.0,38.0,-100.00,NE,35,1.0,6.0,99,-99.99,,,-99.99,,2013-01-13 19:52:00,
2013-01-13 15:03:00,38.0,38.0,-100.00,ESE,105,2.0,6.0,99,-99.99,,,-99.99,,2013-01-13 20:03:00,
2013-01-13 15:12:00,38.0,38.0,-100.00,WNW,300,14.0,19.0,99,-99.99,,,-99.99,,2013-01-13 20:12:00,
2013-01-13 15:22:00,38.0,37.0,-100.00,NW,315,14.0,21.0,99,-99.99,,,-99.99,,2013-01-13 20:22:00,
2013-01-13 15:33:00,36.0,36.0,-100.00,NW,315,12.0,22.0,99,-99.99,,,-99.99,,2013-01-13 20:33:00,
2013-01-13 15:43:00,36.0,36.0,-100.00,NW,320,12.0,24.0,99,-99.99,,,-99.99,,2013-01-13 20:43:00,
2013-01-13 15:53:00,36.0,35.0,-100.00,NW,325,16.0,22.0,99,-99.99,,,-99.99,,2013-01-13 20:53:00,
2013-01-13 16:03:00,35.0,35.0,-100.00,NW,320,11.0,19.0,99,-99.99,,,-99.99,,2013-01-13 21:03:00,
2013-01-13 16:12:00,33.0,33.0,-100.00,WNW,300,14.0,20.0,99,-99.99,,,-99.99,,2013-01-13 21:12:00,
2013-01-13 16:23:00,33.0,33.0,-100.00,NNW,340,11.0,18.0,99,-99.99,,,-99.99,,2013-01-13 21:23:00,
2013-01-13 16:33:00,33.0,33.0,-100.00,NNW,340,11.0,20.0,99,-99.99,,,-99.99,,2013-01-13 21:33:00,
2013-01-13 16:43:00,33.0,33.0,-100.00,NNW,345,10.0,19.0,99,-99.99,,,-99.99,,2013-01-13 21:43:00,
2013-01-13 16:52:00,32.0,32.0,-100.00,North,0,11.0,18.0,99,-99.99,,,-99.99,,2013-01-13 21:52:00,
2013-01-13 17:03:00,32.0,32.0,-100.00,North,0,9.0,17.0,99,-99.99,,,-99.99,,2013-01-13 22:03:00,
2013-01-13 17:12:00,32.0,32.0,-100.00,NNW,345,7.0,17.0,99,-99.99,,,-99.99,,2013-01-13 22:12:00,
2013-01-13 17:22:00,32.0,32.0,-100.00,North,350,9.0,16.0,99,-99.99,,,-99.99,,2013-01-13 22:22:00,
2013-01-13 17:33:00,32.0,32.0,-100.00,North,350,6.0,15.0,99,-99.99,,,-99.99,,2013-01-13 22:33:00,
2013-01-13 17:43:00,31.0,31.0,-100.00,NNW,335,11.0,19.0,99,-99.99,,,-99.99,,2013-01-13 22:43:00,
2013-01-13 17:52:00,31.0,31.0,-100.00,North,350,12.0,19.0,99,-99.99,,,-99.99,,2013-01-13 22:52:00,
2013-01-13 18:02:00,31.0,31.0,-100.00,NNW,345,9.0,17.0,99,-99.99,,,-99.99,,2013-01-13 23:02:00,
2013-01-13 18:12:00,31.0,30.0,-100.00,NW,325,12.0,20.0,99,-99.99,,,-99.99,,2013-01-13 23:12:00,
2013-01-13 18:23:00,30.0,30.0,-100.00,NW,325,14.0,20.0,99,-99.99,,,-99.99,,2013-01-13 23:23:00,
2013-01-13 18:33:00,30.0,30.0,-100.00,NNW,330,8.0,18.0,99,-99.99,,,-99.99,,2013-01-13 23:33:00,
2013-01-13 18:42:00,30.0,30.0,-100.00,NNW,340,11.0,17.0,99,-99.99,,,-99.99,,2013-01-13 23:42:00,
2013-01-13 18:52:00,30.0,29.0,-100.00,NW,325,13.0,21.0,99,-99.99,,,-99.99,,2013-01-13 23:52:00,
2013-01-13 19:03:00,29.0,29.0,-100.00,NW,320,13.0,21.0,99,-99.99,,,-99.99,,2013-01-14 00:03:00,
2013-01-13 19:12:00,29.0,29.0,-100.00,NNW,330,14.0,22.0,99,-99.99,,,-99.99,,2013-01-14 00:12:00,
2013-01-13 19:22:00,30.0,29.0,-100.00,NW,320,12.0,24.0,99,-99.99,,,-99.99,,2013-01-14 00:22:00,
2013-01-13 19:33:00,29.0,29.0,-100.00,NW,325,17.0,23.0,99,-99.99,,,-99.99,,2013-01-14 00:33:00,
2013-01-13 19:43:00,30.0,29.0,-100.00,NW,320,10.0,21.0,99,-99.99,,,-99.99,,2013-01-14 00:43:00,
2013-01-13 19:52:00,30.0,29.0,-100.00,NW,320,12.0,19.0,99,-99.99,,,-99.99,,2013-01-14 00:52:00,
2013-01-13 20:03:00,30.0,29.0,-100.00,NW,320,11.0,17.0,98,-99.99,,,-99.99,,2013-01-14 01:03:00,
2013-01-13 20:12:00,29.0,29.0,-100.00,NW,320,14.0,18.0,97,-99.99,,,-99.99,,2013-01-14 01:12:00,
2013-01-13 20:22:00,30.0,29.0,-100.00,NW,315,10.0,18.0,96,-99.99,,,-99.99,,2013-01-14 01:22:00,
2013-01-13 20:33:00,29.0,28.0,-100.00,NW,320,12.0,21.0,96,-99.99,,,-99.99,,2013-01-14 01:33:00,
2013-01-13 20:42:00,29.0,28.0,-100.00,NW,325,12.0,21.0,95,-99.99,,,-99.99,,2013-01-14 01:42:00,
2013-01-13 20:52:00,29.0,28.0,-100.00,NW,320,17.0,23.0,95,-99.99,,,-99.99,,2013-01-14 01:52:00,
2013-01-13 21:03:00,29.0,27.0,-100.00,NW,305,14.0,24.0,95,-99.99,,,-99.99,,2013-01-14 02:03:00,
2013-01-13 21:12:00,29.0,28.0,-100.00,NW,315,12.0,21.0,96,-99.99,,,-99.99,,2013-01-14 02:12:00,
2013-01-13 21:22:00,29.0,28.0,-100.00,NW,325,9.0,21.0,96,-99.99,,,-99.99,,2013-01-14 02:22:00,
2013-01-13 21:33:00,28.0,27.0,-100.00,NW,325,11.0,17.0,96,-99.99,,,-99.99,,2013-01-14 02:33:00,
2013-01-13 21:42:00,28.0,27.0,-100.00,NW,315,14.0,22.0,96,-99.99,,,-99.99,,2013-01-14 02:42:00,
2013-01-13 21:53:00,27.0,26.0,-100.00,NW,315,13.0,20.0,96,-99.99,,,-99.99,,2013-01-14 02:53:00,
2013-01-13 22:03:00,27.0,26.0,-100.00,NW,305,16.0,22.0,96,-99.99,,,-99.99,,2013-01-14 03:03:00,
2013-01-13 22:12:00,26.0,25.0,-100.00,NW,305,16.0,25.0,96,-99.99,,,-99.99,,2013-01-14 03:12:00,
2013-01-13 22:22:00,26.0,25.0,-100.00,NW,320,14.0,23.0,95,-99.99,,,-99.99,,2013-01-14 03:22:00,
2013-01-13 22:33:00,26.0,25.0,-100.00,WNW,300,13.0,21.0,95,-99.99,,,-99.99,,2013-01-14 03:33:00,
2013-01-13 22:42:00,26.0,24.0,-100.00,WNW,300,12.0,20.0,95,-99.99,,,-99.99,,2013-01-14 03:42:00,
2013-01-13 22:52:00,25.0,24.0,-100.00,NW,310,12.0,17.0,95,-99.99,,,-99.99,,2013-01-14 03:52:00,
2013-01-13 23:03:00,25.0,23.0,-100.00,NW,305,12.0,19.0,92,-99.99,,,-99.99,,2013-01-14 04:03:00,
2013-01-13 23:12:00,25.0,22.0,-100.00,NW,320,12.0,17.0,91,-99.99,,,-99.99,,2013-01-14 04:12:00,
2013-01-13 23:22:00,24.0,21.0,-100.00,NW,320,11.0,20.0,88,-99.99,,,-99.99,,2013-01-14 04:22:00,
2013-01-13 23:32:00,24.0,20.0,-100.00,NW,320,11.0,20.0,86,-99.99,,,-99.99,,2013-01-14 04:32:00,
2013-01-13 23:42:00,24.0,20.0,-100.00,NW,305,11.0,17.0,85,-99.99,,,-99.99,,2013-01-14 04:42:00,
2013-01-13 23:52:00,24.0,20.0,-100.00,NW,320,11.0,17.0,85,-99.99,,,-99.99,,2013-01-14 04:52:00,